Showing default

TJS-13, 62188

Orbit data source: Space-Track

TJS-13, 62188 is a payload satellite owned by CASC (CN) that was launched on Tue, 03 Dec 2024 UTC via a CHANG ZHENG 3B launch vehicle from the Xichang Space Center, China (XSC). Payload-class satellites include a variety of spacecraft equipped with specific instruments for various scientific and technological missions. These include communications satellites like Starlink; space stations such as the ISS; scientific satellites like the Hubble; Earth observation satellites from companies like Planet Labs, Umbra, and HawkEye 360; GPS; miniature CubeSats for education and research; and military/defense satellites.

Loading next visibility...
Identifier
62188, 2024-227A
Orbit
Molniya
Last TLE update
5 days ago
Origin
Manufacturer
SISE
Mission
Operational Defense Technology
Bus & Motor
FY-4?, Unknown motor
Mass
~4,000 kg wet, ~2,500 kg dry
Launch date (UTC)
2024-12-03 (5 months ago)
Launch vehicle
CHANG ZHENG 3B
Launch site
Xichang Space Center, China (XSC)
Object type
Payload
Rocket body
Debris
Shape & HBR
Box + 2 Pan, 30 m
Radar Cross Section
34.063 m², Large (>1 m²)

Expand to show TLE details & history

TLE from 5 days ago
0 TJS-13
1 62188U 24227A   25122.66396766  .00000566  00000-0  00000-0 0  9990
2 62188  63.4884  88.7255 7030176 269.5524  16.8841  2.00613226  3016
Epoch: 2025-05-02T15:56Z
Definitive object data (Epoch: 2025-05-02T15:56:06.805Z)
Latitude
0.0001°
Longitude
-11.17622°
Altitude
7,154.205 km
Speed
6.626 km/s
True Right ascension
05h 54m 40s
True Declination
0° 00' 00"
Sunlit
Object was in daylight at TLE epoch
Visualization TLE readout
Latitude
51.44946°
Longitude
26.96788°
Altitude
28,672.284 km
Speed
2.782 km/s
Apparent Right ascension
07h 35m 29s
Apparent Declination
47° 18' 56"
Sunlit
Object is in daylight
Visualization observer readout
Local Sidereal Time
13:45:13
Azimuth
310.685° NW
Elevation
26.716°
Doppler factor
1
Orbital elements
Apogee altitude
38,845.592 km
Perigee altitude
1,508.248 km
Semi-major axis
26,555.057 km
Eccentricity
0.7030176
Inclination
63.4884°
RAAN
88.7255°
Arg. of periapsis
269.5524°
True anomaly
90.55144°
Mean anomaly
16.8841°
Eccentric anomaly
45.72389°
Mean motion
0.50156 °/min
BSTAR
Unknown
Orbital period
717.76 mins
Loading maneuver chart data...
Loading SW <> Apogee altitude chart data...
Loading historical data...
Loading historical data...
Loading historical data...
Loading historical data...
Loading historical data...
Loading historical data...
Loading historical data...
Other satellites on launch #227 in the year 2024 (2024-12-03 UTC)

TJS-13 Visibility forecast

Observer location: undefined°, undefined°

Span
Click to sort rows by Start time (UTC) header in descending order
Start Az.
Max El. time (UTC)
Max El. Az.
Max El.
End time (UTC)
End Az.
488 mins2025-05-07 05:44:23.861Z310.669° NW2025-05-07 09:56:23.861Z324.126° NNW28.925°2025-05-07 13:52:23.861Z283.803° WNW
443 mins2025-05-07 17:15:23.861Z46.104° ENE2025-05-07 20:36:23.861Z30.795° NE21.375°2025-05-08 00:38:23.861Z43.9° NE
89 mins2025-05-08 04:15:23.861Z289.335° WNW2025-05-08 05:44:23.861Z311.41° NW24.461°2025-05-08 05:44:23.861Z311.41° NW
|